EHI
3 2 2 3 5 8 8 7 5 4 4 3 2 0 0 0 0 1 2 4 5 6 8 8 6 5 5 6 5 2 1 0 0 0 0 1 2 2 2 1 0 0 0
2 2 3 3 4 5 7 6 6 5 5 6 4 2 1 1 0 0 2 4 5 6 7 8 7 6 7 7 7 5 3 2 1 0 0 1 2 1 1 0 0 0 0
1 2 4 4 4 4 5 7 7 7 8 8 6 4 3 2 1 1 2 4 5 6 7 8 8 8 7 7 8 9 7 5 3 2 1 1 1 0 0 0 0 0 0
0 1 3 4 4 4 5 6 8 9 8 7 6 5 4 3 3 2 2 3 3 5 6 7 8 8 7 6 7 8 9 6 4 3 3 2 2 1 1 0 0 0 0
0 1 2 2 2 4 5 6 7 9 8 5 4 5 4 3 3 3 3 2 2 3 4 6 8 8 7 7 6 7 7 5 3 3 4 4 4 4 2 1 0 0 0
0 0 1 1 1 2 3 4 5 7 7 5 4 4 4 4 3 3 3 2 1 1 3 6 8 8 6 5 5 5 5 3 2 3 3 4 5 6 4 2 1 1 0
0 0 0 0 0 0 1 2 3 5 6 6 5 5 5 5 4 3 3 2 1 1 3 5 7 6 5 3 2 2 3 3 2 2 3 4 6 6 5 4 3 2 1
0 0 0 0 0 0 0 0 2 4 5 6 5 4 4 5 6 5 4 2 1 2 3 4 3 3 3 2 0 1 2 2 1 1 2 5 6 5 4 4 4 4 3
0 1 1 1 0 0 0 0 1 3 4 4 3 3 4 4 5 6 5 3 1 1 2 2 1 1 1 1 1 1 2 2 1 0 1 3 4 3 2 3 4 5 5
1 2 2 2 1 0 1 0 1 3 4 4 4 5 4 4 4 5 5 4 3 2 1 1 0 0 0 2 3 2 1 1 1 1 1 1 1 1 1 2 3 5 5
2 2 3 2 1 0 1 1 2 4 6 6 6 8 6 4 5 5 5 4 3 2 2 1 1 0 1 2 3 2 1 0 0 1 1 2 1 0 0 1 1 3 4
4 3 3 2 1 0 1 2 3 5 7 8 8 9 8 6 6 6 5 3 2 2 2 2 2 1 1 2 2 1 0 0 0 0 1 1 1 0 0 0 0 1 2
5 4 3 2 1 1 2 3 4 6 6 6 7 8 8 7 6 5 4 2 2 2 2 2 2 3 3 3 2 1 0 0 0 0 0 0 0 0 0 0 0 0 1
5 5 5 4 3 4 4 5 6 6 6 6 6 8 9 10 8 7 5 3 3 2 1 2 3 5 6 5 2 1 0 0 0 0 0 0 0 0 0 0 0 0 0
6 6 6 6 6 8 9 9 8 7 8 8 8 7 9 10 9 8 7 6 4 3 1 1 3 4 4 3 1 0 0 0 0 0 0 0 0 0 0 0 0 0 0
8 8 8 8 9 11 13 12 8 7 8 9 9 6 6 6 6 6 7 6 4 3 2 1 1 2 2 2 0 0 0 0 0 0 0 0 0 0 0 0 0 0 0
10 10 10 11 11 13 14 12 8 5 5 6 7 5 3 3 2 3 4 3 2 2 2 1 1 1 2 2 1 1 0 0 0 0 0 0 0 0 0 0 0 0 0
12 12 13 13 12 12 14 12 8 5 4 4 4 3 2 1 1 1 1 0 0 1 1 1 1 2 2 1 2 1 0 0 0 0 0 0 0 0 0 0 0 0 0
11 12 13 13 12 12 13 12 8 6 4 3 3 2 1 0 0 0 0 0 0 0 0 0 1 2 2 2 2 2 1 1 0 0 0 0 0 0 0 0 0 0 0
9 9 10 11 11 12 11 8 5 4 3 2 1 1 0 0 0 0 0 0 0 0 0 0 0 1 2 2 2 2 2 1 0 0 0 0 0 0 0 0 0 0 0
8 8 7 8 9 9 7 4 2 1 1 1 0 0 0 0 0 0 0 0 0 0 0 0 0 0 1 2 1 1 1 1 0 1 1 1 1 0 0 0 0 0 0
9 8 8 8 8 6 3 1 1 1 1 1 0 0 0 0 0 0 0 0 0 0 0 0 0 0 0 0 0 0 0 0 0 1 2 3 2 1 0 0 0 0 0
9 8 7 7 7 4 1 0 1 2 2 2 1 0 0 0 0 0 0 1 1 0 0 0 0 0 0 0 0 0 0 0 0 1 2 3 3 2 0 0 0 0 0
9 7 5 5 5 4 2 1 1 2 3 3 2 1 1 1 0 0 1 2 2 1 0 0 0 0 0 0 0 0 0 0 0 1 1 1 1 1 0 0 0 0 0
7 5 4 5 5 5 3 1 1 2 3 3 3 2 2 1 0 0 1 2 2 1 0 0 0 0 0 0 0 0 0 0 0 0 0 0 0 0 0 0 0 0 0
6 5 5 6 6 6 3 1 1 2 3 3 3 2 1 1 0 0 1 2 1 0 0 0 0 0 0 0 0 0 0 0 0 0 0 1 1 1 1 1 1 0 0
Wind_Speed
1 0 0 1 1 1 1 2 2 2 3 4 4 4 4 4 4 4 2 6 7 7 8 8 9 9 9 9 9 10 10 10 10 10 11 11 12 11 12 12 12 12 12
1 1 1 1 1 1 1 1 2 2 3 2 3 3 4 4 4 4 3 5 7 7 7 7 8 8 8 8 8 9 9 9 9 10 10 10 11 11 11 12 12 11 12
1 1 1 1 1 1 1 1 2 2 2 2 2 3 3 3 3 3 3 3 4 7 7 7 7 6 7 7 7 7 8 8 8 9 9 9 10 11 11 11 11 11 11
2 2 1 2 2 2 1 1 1 1 1 1 1 2 2 2 3 3 3 3 2 3 6 6 5 5 6 6 6 7 7 7 8 9 9 9 10 10 10 10 10 10 11
2 2 2 2 2 2 1 2 1 1 1 1 2 2 2 2 3 3 3 3 2 2 2 6 6 5 4 5 5 6 6 6 7 8 9 10 10 10 10 10 10 10 10
2 2 1 2 3 1 1 1 1 1 1 2 2 1 1 2 2 2 3 2 2 3 2 3 4 5 6 5 4 5 5 6 6 6 8 9 10 10 10 10 10 10 10
2 2 2 1 2 1 2 2 1 2 1 1 2 2 3 3 2 2 2 2 2 2 2 3 2 2 4 7 5 5 5 6 6 6 6 7 8 9 9 10 10 11 11
1 1 2 2 1 1 1 2 2 2 1 1 2 2 2 4 4 3 2 2 2 2 3 2 1 2 2 2 4 5 5 5 5 6 6 6 7 7 7 8 10 10 11
1 2 2 2 2 2 1 2 2 2 2 2 2 2 2 1 1 3 2 1 1 1 2 2 2 2 2 2 2 5 4 4 4 5 6 6 6 6 6 7 8 9 10
2 2 1 2 2 2 1 2 1 2 3 2 1 2 2 2 2 1 2 2 2 2 1 2 2 2 2 2 2 3 4 4 4 5 5 6 6 6 6 7 7 8 9
1 2 2 2 2 2 2 2 1 2 2 2 2 1 1 1 3 2 1 1 1 1 2 2 2 2 2 2 2 3 3 4 4 4 4 5 6 7 7 7 7 8 8
1 2 2 2 2 2 1 1 1 1 2 2 2 1 2 2 2 2 2 3 2 1 2 2 2 2 2 2 3 3 3 3 3 3 4 4 5 6 6 7 8 8 8
1 1 2 2 2 2 1 2 1 1 1 2 2 2 2 2 2 3 3 3 3 2 2 3 2 2 2 1 2 3 4 4 3 3 4 4 5 6 6 6 6 6 6
2 2 2 2 2 2 2 1 1 1 1 1 2 2 2 2 2 3 3 3 3 3 3 2 1 1 1 1 1 3 3 4 4 3 3 4 5 5 6 6 5 5 5
1 1 1 2 2 1 1 1 1 1 1 2 2 2 3 2 2 2 2 3 4 4 3 1 1 0 1 1 1 2 2 3 4 4 4 4 4 5 5 5 5 5 5
2 2 2 2 2 1 1 1 1 0 1 1 1 2 2 2 2 2 2 2 3 4 3 1 1 1 2 2 1 2 2 3 5 5 4 4 5 5 5 5 5 5 6
1 1 2 2 2 2 2 2 2 1 1 1 2 1 2 2 2 2 2 2 3 3 3 2 2 1 1 3 2 2 3 3 2 5 5 4 4 4 4 5 5 6 6
1 1 1 1 2 2 2 2 3 2 2 2 2 2 2 2 2 3 2 3 3 2 3 3 3 2 2 3 2 3 2 2 2 4 5 5 5 5 5 5 5 5 5
1 1 1 1 2 2 2 2 2 2 2 2 3 3 3 3 3 2 3 3 3 2 3 3 3 2 2 2 2 2 3 2 3 3 5 6 6 6 5 5 6 5 5
1 1 2 1 1 1 2 2 2 2 2 3 3 3 3 3 3 3 3 3 3 3 2 3 3 2 2 2 2 2 2 2 3 2 1 2 4 7 7 6 6 6 5
0 1 1 2 2 1 2 3 2 1 2 2 2 2 2 3 4 3 3 3 3 3 2 2 2 2 2 2 2 3 3 3 3 2 2 3 3 4 5 7 7 6 5
0 1 0 1 1 2 4 4 4 2 2 2 3 3 2 1 0 0 1 3 3 3 3 3 3 3 3 3 3 4 4 3 3 2 3 3 3 3 3 3 4 6 5
1 0 0 1 1 2 2 2 3 3 2 2 2 3 3 2 1 2 1 2 2 3 4 4 4 4 4 4 4 5 4 5 5 3 3 4 3 3 3 1 6 6 5
1 1 1 1 1 1 1 2 4 3 2 2 2 2 2 2 3 3 3 2 2 2 2 3 3 4 4 4 5 5 5 5 4 3 3 4 3 3 3 2 7 7 6
1 1 1 1 2 1 1 2 5 3 2 2 2 2 2 2 2 2 3 3 3 3 2 2 2 4 4 5 5 4 4 4 4 2 2 3 3 3 3 3 4 7 6
2 2 0 1 2 1 1 1 5 4 2 2 1 2 1 1 1 3 4 3 4 4 4 2 3 4 5 4 5 5 4 4 4 3 2 3 3 2 3 2 2 3 4
Wind_Direction
298 328 283 278 279 263 223 229 233 222 223 218 215 211 227 231 231 228 191 177 199 206 212 216 219 224 221 219 218 215 210 208 205 202 204 206 207 208 207 205 205 203 204
337 306 266 291 293 290 288 260 242 226 223 217 217 211 222 225 219 223 223 180 184 198 213 220 224 225 220 215 214 212 209 205 200 200 203 205 207 206 208 207 208 207 207
340 302 312 291 322 310 276 244 240 241 226 215 214 215 216 218 212 218 223 208 187 185 199 214 220 218 216 214 213 209 205 201 197 196 198 203 206 204 206 205 208 208 207
332 310 318 316 319 297 288 249 240 239 235 243 232 225 213 204 204 206 206 200 207 193 178 184 196 204 207 205 205 207 202 198 199 198 202 207 208 206 207 205 205 209 207
333 313 331 340 308 307 302 281 192 243 236 240 227 204 213 206 200 196 200 207 199 213 195 161 174 183 191 190 195 198 197 192 195 198 203 205 204 203 203 202 203 205 204
336 318 310 337 311 303 299 306 272 233 245 244 252 209 219 192 190 188 203 196 196 213 217 197 186 176 179 183 188 193 194 190 189 194 199 202 202 199 198 198 198 201 203
339 326 321 322 295 304 314 288 257 221 225 226 231 212 196 187 187 200 209 208 201 211 220 223 216 206 176 178 186 196 202 202 197 195 194 195 195 196 199 200 200 202 205
311 297 330 307 314 304 285 274 261 276 253 226 258 246 211 189 195 197 197 204 212 213 215 208 197 204 229 180 154 186 202 207 206 205 200 196 196 199 200 203 206 206 207
327 337 339 329 325 293 309 289 264 253 259 238 252 283 279 276 166 167 182 178 200 214 218 199 185 183 200 162 152 161 182 193 201 207 209 205 201 200 202 200 202 207 210
348 338 340 335 325 330 332 279 279 261 255 251 219 260 304 344 291 201 176 167 177 209 233 233 201 185 201 187 134 120 158 184 206 214 212 214 214 209 208 206 207 208 211
9 353 359 352 336 334 341 327 326 276 258 269 269 254 249 243 271 278 258 254 222 210 207 219 218 213 203 198 190 137 158 187 208 206 206 211 212 212 211 213 213 212 214
23 8 355 344 320 338 337 312 296 259 279 289 293 289 269 268 261 266 263 255 259 263 242 231 228 228 224 214 183 140 183 192 203 208 208 213 215 212 213 216 219 219 218
343 355 343 330 324 326 312 305 275 297 269 260 270 280 278 276 285 275 266 267 269 264 248 242 233 244 244 233 169 159 186 186 196 210 215 215 214 213 213 213 216 218 219
336 348 340 326 319 307 309 309 282 264 249 249 255 272 274 276 281 279 280 286 274 265 240 249 235 248 289 263 110 212 200 180 193 206 214 217 213 212 217 215 217 216 216
333 356 327 323 334 331 328 294 317 286 259 250 249 238 257 264 257 260 271 272 274 279 279 232 264 274 273 270 147 244 237 166 186 204 212 214 210 215 221 221 219 214 211
347 336 333 330 328 325 306 275 263 269 246 254 276 295 282 274 271 258 255 256 263 268 282 315 300 298 327 299 195 264 247 183 199 203 208 208 209 214 218 223 222 211 210
343 336 335 327 322 324 331 314 309 315 289 281 272 268 274 291 284 278 270 266 263 264 268 286 293 299 281 277 273 274 254 245 204 178 193 200 205 210 216 223 223 219 219
333 341 329 323 318 332 333 326 325 333 301 293 293 293 287 276 276 280 291 285 282 277 267 277 282 281 266 266 260 264 265 258 253 157 180 198 205 210 214 218 220 218 221
347 351 348 338 336 344 344 338 337 329 316 318 318 313 307 300 287 295 287 284 287 283 278 270 273 289 282 289 283 270 269 270 265 184 183 194 199 205 211 212 213 213 215
7 2 1 352 357 0 346 334 336 339 333 328 325 322 324 319 311 298 277 282 288 290 275 272 281 287 291 307 293 281 280 275 274 260 232 219 203 204 209 210 209 209 210
36 29 12 359 349 344 350 335 319 332 334 323 321 323 338 359 1 333 321 320 305 289 286 285 286 289 301 314 306 292 282 282 270 259 261 244 226 227 211 204 203 202 203
21 34 14 325 338 8 34 1 322 318 326 321 320 315 297 256 339 240 324 324 317 296 300 294 285 289 295 298 302 288 284 278 276 261 269 266 257 249 243 228 157 166 186
148 113 294 316 339 30 26 340 313 299 301 313 318 317 319 20 347 317 251 224 244 245 252 276 285 290 289 285 283 279 284 284 283 276 270 263 253 253 251 186 145 162 177
167 182 277 306 311 26 25 312 299 263 281 299 307 310 316 337 345 331 317 312 297 281 266 265 285 285 287 293 284 277 276 272 266 256 256 265 258 265 263 226 155 165 177
203 227 243 293 288 327 42 302 297 267 250 267 277 298 298 302 15 319 287 294 299 292 237 226 275 285 291 281 277 271 269 266 268 261 243 264 270 276 268 239 168 169 184
228 245 283 304 302 311 91 288 292 279 282 283 265 234 139 310 341 294 281 288 290 301 308 291 257 246 248 245 244 257 267 267 269 270 253 262 261 268 265 248 226 193 193